Location: Copetón
(10.0045°N, 67.8273°W)
Time: 22:01:46
(UTC+00:00)

NOAA 6 - Pass Details

Date: 18 April 2024
Orbit: 770 x 783 km, 98.6° (Epoch: 24 May)

Event Time Altitude Azimuth Distance (km) Brightness Sun altitude
Rises 23:04:03 0° 163° (SSE) 3,249 7.0 -6.1°
Reaches altitude 10° 23:06:23 10° 161° (SSE) 2,320 6.2 -6.7°
Maximum altitude 23:11:28 71° 77° (ENE) 815 4.0 -7.9°
Drops below altitude 10° 23:16:32 10° 354° (N) 2,310 6.8 -9.1°
Sets 23:18:50 0° 352° (N) 3,234 7.5 -9.7°
